NOAA 16 DEB, 41217

Orbit data source: Space-Track

NOAA 16 DEB, 41217 is space debris in SSO originally from a launch on Thu, 21 Sep 2000 UTC launched from the Air Force Western Test Range (AFWTR). Debris objects in space refer to the collection of defunct objects orbiting the Earth. Examples of debris include non-operational satellites, rocket bodies, and fragments generated from explosions, collisions, or faulty payload assembly.

Loading next visibility...
Identifier
41217, 2000-055DW
Orbit
SSO
Country
Flag of USUS
Related business
Manufacturer
Unknown
Mission
Spacecraft
Bus & Motor
Unknown
Mass
Unknown
Launch date (UTC)
2000-09-21 (25 years ago)
Launch vehicle
Unknown
Launch site
Air Force Western Test Range (AFWTR)
Object type
Payload
Rocket body
Debris
Shape & HBR
Unknown shape, 0.1 m
Radar Cross Section
Small (<0.1 m²)

Expand to show TLE details & history
Last TLE update: 2 days ago

TLE from 2 days ago
0 NOAA 16 DEB
1 41217U 00055DW  25298.79661548  .00004127  00000-0  20452-2 0  9996
2 41217  98.7098 326.7890 0040323 215.2396 144.6111 14.17327037506153
Epoch: 2025-10-25T19:07Z
TLE epoch observation values (Epoch: 2025-10-25T19:07:07.577Z)
Latitude
-0.0001°
Longitude
5.58543°
Altitude
861.071 km
Speed
7.41 km/s
True Right ascension
21h 47m 09s
True Declination
0° 00' 00"
Sunlit
Object was in daylight at epoch
Visualization orbit readout
Latitude
Unknown
Longitude
Unknown
Altitude
Unknown
Speed
Unknown
Apparent Right ascension
Unknown
Apparent Declination
Unknown
Sunlit
N/A
Visualization observer readout
Local Sidereal Time
04:18:03
Azimuth
Unknown
Elevation
Unknown
Doppler factor
Unknown
Orbital elements
Apogee altitude
860.641 km
Perigee altitude
802.497 km
Semi-major axis
7,209.706 km
Eccentricity
0.00403
Inclination
98.7098°
RAAN
326.789°
Arg. of periapsis
215.2396°
True anomaly
144.8776°
Mean anomaly
144.6111°
Eccentric anomaly
144.74446°
Mean motion
3.54541 °/min
Orbital period
101.54 mins
BSTAR
0.0020452
Loading maneuver chart data...
Computing Atmospheric mass density...
Loading historical data...
Loading historical data...
Loading historical data...
Loading historical data...
Loading historical data...
Loading historical data...
Loading historical data...

Documentation

Showing up to 5 results
|